Location: Drop
(33.1310°N, 97.3559°W)
Time: 19:57:54
(UTC+00:00)

Daily predictions for brighter satellites

Satellite Brightness Start Highest point End
(mag) Time Altitude Azimuth Time Altitude Azimuth Time Altitude Azimuth
EXPRESS MD2 2.8 12:03:32 28° NNW 12:04:35 49° NE 12:06:45 10° ESE
USA 234 3.4 12:00:02 10° SSE 12:06:27 57° SW 12:11:48 16° NW
ADEOS Rocket 3.3 12:03:27 10° NNE 12:09:14 63° E 12:14:40 10° S
Cosmos 1782 2.5 12:06:54 10° N 12:10:39 85° W 12:14:23 10° S
Iridium 51 4.2 12:07:15 10° SSW 12:11:00 61° W 12:14:57 10° N
OAO 2 Rocket 3.3 12:07:52 22° WNW 12:11:08 75° N 12:16:12 10° E
DNEPR-1 R/B 4.1 12:07:21 10° NNW 12:12:00 57° ENE 12:16:07 10° SE
Cosmos 1943 3.4 12:08:41 10° SW 12:14:08 48° WNW 12:19:39 10° N
Cosmos 1656 Rocket 3.8 12:10:09 12° NW 12:14:59 48° WSW 12:20:09 10° S
Cosmos 1500 3.5 12:13:01 10° SW 12:15:52 30° W 12:18:44 10° NNW
Cosmos 2298 Rocket 4.5 12:10:45 10° N 12:16:01 64° ENE 12:21:16 10° SSE
Cosmos 2098 4.2 12:13:27 10° SSW 12:16:28 52° W 12:19:23 10° N
Cosmos 2341 Rocket 4.0 12:12:02 10° S 12:18:19 83° W 12:24:42 10° N
GEOS 3 Rocket 3.6 12:13:17 10° SSE 12:18:28 88° SW 12:23:38 10° NNW
COSMO-SKYMED 1 2.9 12:14:58 10° S 12:19:06 44° W 12:23:15 10° NNW
ATLAS 2AS CENTAUR R/B 3.9 12:15:35 10° NNW 12:21:44 36° NE 12:27:46 10° ESE
RESURS DK-1 2.5 12:19:27 11° NNW 12:23:08 51° WSW 12:27:01 10° S
Cosmos 1933 3.4 12:20:01 10° N 12:23:56 79° E 12:27:49 10° S
Cosmos-2242 3.3 12:20:08 10° N 12:24:20 68° E 12:28:32 10° SSE
USA 281 3.3 12:17:59 10° SSE 12:24:33 86° ENE 12:31:09 10° NNW
Meteor 2-2 Rocket 4.5 12:27:09 10° N 12:33:02 83° E 12:39:00 10° S
BREEZE-M DEB (TANK) 3.7 12:25:56 10° SW 12:33:06 60° SE 12:35:52 10° ENE
Cosmos 1340 Rocket 3.7 12:33:15 10° NNW 12:36:37 28° W 12:39:57 10° SSW
Cosmos 1758 Rocket 3.5 12:33:08 10° SSW 12:37:26 69° W 12:41:48 10° N
Cosmos 1959 Rocket 4.5 12:31:55 10° S 12:38:14 76° W 12:44:30 10° N
Cosmos 1125 Rocket 4.3 12:34:02 10° NW 12:38:42 32° W 12:43:19 10° SSW
Cosmos 1238 Rocket 3.9 12:33:56 10° N 12:39:31 75° E 12:45:00 10° S
Tiangong 0.9 12:38:15 10° S 12:40:25 17° SE 12:42:36 10° E
Cosmos 1666 3.8 12:38:36 10° WSW 12:40:44 16° WNW 12:42:51 10° NW
CSL-04 DEB 4.3 12:40:21 10° N 12:44:21 71° WNW 12:48:18 10° SSW
BREEZE-M DEB (TANK) 4.3 12:42:15 10° NNW 12:45:14 30° NE 12:52:04 10° E
SMAP 3.1 12:44:37 10° NNE 12:49:17 90° ENE 12:53:57 10° SSW
Cosmos 1340 4.0 12:46:31 10° SSE 12:49:18 35° E 12:52:06 10° NNE
Meteor 1-26 Rocket 4.5 12:44:31 10° N 12:50:18 82° E 12:56:13 10° S
PSLV R/B 4.0 23:40:33 10° SE 23:44:26 37° ENE 23:48:18 10° N
Cosmos 44 4.2 23:42:03 10° N 23:45:28 22° NE 23:48:52 10° ESE
SMAP 3.2 23:43:20 10° SSE 23:47:52 54° ENE 23:52:24 10° N
Spot 4 Rocket 4.1 23:47:14 10° SSE 23:52:12 56° ENE 23:57:11 10° N
CZ-2D R/B 3.9 23:50:37 10° S 23:54:01 55° W 23:57:27 10° NNW
